Flag for Australia Weather past 2 weeks in Townsville, Queensland, Australia

Now
68 °F

Clear.


Feels Like: 68 °F
Forecast: 67 / 75 °F
Wind: 10 mph from East

Location: Townsville Amo

Current Time: Aug 20, 2014 at 8:51:39 PM

Latest Report: Aug 20, 2014 at 8:00 PM


Visibility: 10 mi

Pressure: 30.07 "Hg

Humidity: 60%

Dew point: 54 °F

Location of TownsvilleLocation

Historic Weather in Townsville — Graph

°F

Townsville temperature yesterday

Maximum temperature yesterday: 77 °F (at 1:00 PM)
Minimum temperature yesterday: 54 °F (at 4:00 AM)
Average temperature yesterday: 65 °F

Past Weeks' High & Low Weather Summary

 TemperatureHumidityPressure
High81 °F (Aug 6, 12:30 PM)100% (Aug 12, 4:00 AM)30.24 "Hg (Aug 12, 4:00 AM)
Low52 °F (Aug 20, 6:30 AM)21% (Aug 17, 12:00 PM)29.83 "Hg (Aug 16, 2:00 PM)
Average69 °F65%30.08 "Hg
* Reported Aug 5 8:00 PM — Aug 20 8:00 PM, Townsville, Weather by CustomWeather, © 2014

Note: Actual official high and low records may vary slightly from our data, if they occured in-between our weather recording intervals... More about our weather records

Advertising

Townsville weather history for previous 24 hours

 ConditionsComfort  
Time TempWeatherWind HumidityBarometerVisibility
8:00 PM
Aug 20
68 °FClear.10 mph60%30.07 "Hg10 mi
7:30 PM68 °FClear.8 mph60%30.04 "Hg10 mi
7:00 PM68 °FPassing clouds.8 mph60%30.04 "HgN/A
6:00 PM70 °FPassing clouds.12 mph60%30.04 "HgN/A
5:30 PM70 °FPassing clouds.15 mph60%30.04 "HgN/A
5:00 PM72 °FPassing clouds.15 mph61%30.01 "HgN/A
4:00 PM73 °FPassing clouds.14 mph53%29.98 "HgN/A
3:30 PM73 °FPassing clouds.14 mph53%29.98 "HgN/A
3:00 PM73 °FPassing clouds.15 mph57%29.98 "HgN/A
2:00 PM73 °FPassing clouds.12 mph50%30.01 "HgN/A
1:30 PM75 °FPassing clouds.9 mph44%30.01 "HgN/A
1:00 PM75 °FPassing clouds.10 mph41%30.01 "HgN/A
12:30 PM75 °FScattered clouds.9 mph44%30.04 "HgN/A
12:00 PM75 °FScattered clouds.10 mph44%30.04 "HgN/A
11:30 AM73 °FScattered clouds.10 mph47%30.07 "HgN/A
11:00 AM75 °FScattered clouds.8 mph44%30.07 "HgN/A
10:30 AM73 °FScattered clouds.7 mph47%30.07 "HgN/A
10:00 AM73 °FScattered clouds.6 mph50%30.07 "HgN/A
9:30 AM72 °FSunny.5 mph53%30.09 "Hg10 mi
9:00 AM68 °FSunny.2 mph60%30.07 "Hg10 mi
8:30 AM64 °FSunny.No wind73%30.07 "Hg10 mi
8:00 AM61 °FSunny.No wind83%30.07 "Hg10 mi
7:30 AM57 °FSunny.No wind88%30.07 "Hg10 mi
7:00 AM54 °FFog.No wind94%30.04 "HgN/A
6:30 AM52 °FFog.No wind94%30.04 "HgN/A
6:00 AM54 °FFog.No wind94%30.04 "HgN/A
5:00 AM54 °FClear.5 mph94%30.01 "HgN/A
4:00 AM54 °FClear.No wind94%30.01 "HgN/A
3:30 AM54 °FClear.No wind100%30.01 "HgN/A
3:00 AM55 °FClear.1 mph94%30.01 "HgN/A
2:30 AM55 °FClear.3 mph94%30.04 "HgN/A
2:00 AM55 °FClear.3 mph88%30.04 "HgN/A
1:30 AM57 °FClear.6 mph88%30.04 "HgN/A
1:00 AM59 °FClear.6 mph77%30.04 "HgN/A
12:30 AM59 °FClear.5 mph77%30.04 "HgN/A
12:00 AM59 °FClear.6 mph77%30.04 "HgN/A
11:30 PM
Aug 19
59 °FClear.2 mph82%30.04 "HgN/A
11:00 PM59 °FClear.No wind82%30.04 "HgN/A
10:30 PM57 °FClear.5 mph88%30.04 "Hg10 mi
10:00 PM57 °FClear.6 mph88%30.04 "Hg10 mi
9:30 PM63 °FClear.6 mph68%30.04 "Hg10 mi
9:00 PM63 °FClear.6 mph68%30.04 "Hg10 mi
8:30 PM63 °FClear.No wind68%30.04 "Hg10 mi
8:00 PM64 °FClear.No wind64%30.01 "Hg10 mi
Weather by CustomWeather, © 2014

See weather overviewHow to use our weather pages